Location: Barnston
(51.8500°N, 0.4000°E)
Time: 19:19:43
(UTC+00:00)

NOSS 2-3 (E) - Pass Details

Date: 26 September 2023
Orbit: 505 x 1696 km, 63.3° (Epoch: 05 December)

Event Time Altitude Azimuth Distance (km) Brightness Sun altitude
Exits shadow 02:56:03 39° 302° (WNW) 1,359 5.0 -26.1°
Maximum altitude 02:58:24 72° 229° (SW) 1,059 4.4 -25.8°
Drops below altitude 10° 03:06:04 10° 147° (SSE) 3,256 7.2 -24.8°
Sets 03:09:18 0° 146° (SE) 4,402 7.9 -24.4°
